Theta_e
327 323 320 317 305 302 297 298 302 302 303 303 311 305 302 308 307 305 332 335 338 340 340 345 349 349 348 349 347 346 343 341 341 340 340 340 341 341 342 342 346 345 343 342 339 337 336 335 335
319 319 318 313 299 296 294 300 299 303 306 306 308 305 304 307 319 322 330 339 340 341 340 343 346 349 348 348 347 346 343 341 340 339 339 338 338 339 340 342 344 345 343 341 337 336 335 334 334
320 318 311 305 300 295 295 298 301 305 305 304 303 306 306 311 321 328 336 339 340 340 341 343 346 349 348 348 347 346 343 340 339 337 336 336 336 338 339 340 343 342 339 337 335 334 334 333 334
315 312 309 298 298 299 299 300 304 304 302 304 304 303 311 318 324 331 337 339 339 339 342 343 347 349 348 347 347 346 342 340 338 336 334 334 334 336 337 338 341 338 336 335 333 332 332 332 333
314 311 301 298 298 299 301 303 303 303 302 303 302 302 309 318 327 335 336 338 337 338 342 346 347 348 348 347 347 346 343 341 339 337 333 332 332 334 335 336 336 334 333 331 330 330 330 330 331
306 306 297 295 298 300 300 302 301 302 302 304 301 300 309 321 324 332 337 335 338 342 344 345 341 343 345 345 345 345 344 342 340 338 333 331 331 332 333 334 333 331 329 328 328 329 329 329 329
306 302 297 297 298 298 301 303 298 300 301 301 303 299 309 316 324 332 335 336 338 341 343 342 343 341 338 341 341 342 342 342 341 339 335 333 333 333 332 333 331 328 326 326 327 328 328 329 329
306 304 298 297 296 297 302 302 302 300 300 305 306 299 303 314 322 327 332 332 334 340 340 340 337 341 341 339 335 337 339 339 338 336 332 330 329 330 329 328 328 326 324 325 326 327 327 327 326
307 298 294 297 298 298 302 300 301 302 302 301 306 304 310 317 324 323 325 327 330 336 338 338 337 339 340 340 335 332 334 334 332 330 327 324 322 321 323 324 326 324 323 325 326 326 324 323 324
301 297 298 300 300 299 301 300 301 298 299 300 303 306 312 320 320 321 322 323 326 331 335 337 338 339 340 341 337 338 337 335 332 329 325 325 324 322 320 320 323 324 323 323 324 323 323 319 315
302 298 301 300 302 302 301 298 302 298 297 301 301 304 310 317 318 320 323 323 325 331 335 336 336 337 338 339 339 339 337 336 332 327 327 331 323 319 317 316 315 314 315 314 315 317 314 314 313
296 301 300 303 302 301 299 302 299 300 300 303 303 306 309 315 317 318 321 322 324 327 331 334 337 336 336 339 338 338 337 336 333 330 331 326 323 321 317 316 315 313 311 310 312 312 312 311 311
297 298 299 301 301 299 302 298 299 299 302 304 304 305 306 312 315 317 319 322 323 325 328 331 334 337 337 337 338 337 337 336 335 331 331 328 323 320 318 317 318 317 317 316 311 310 309 308 307
301 300 299 300 300 300 298 297 298 299 303 303 303 302 303 306 311 314 317 319 321 325 327 332 333 335 336 337 337 337 337 337 336 335 332 328 326 322 320 317 317 316 317 315 312 307 306 302 301
301 296 298 299 300 298 299 296 296 300 301 302 301 301 303 304 306 308 314 316 320 323 326 329 333 334 333 334 335 334 335 336 335 334 332 329 326 325 321 318 316 316 316 314 311 306 302 297 296
296 294 289 297 299 299 297 289 298 299 299 299 300 300 301 303 304 305 309 316 319 322 325 328 331 333 333 332 331 333 333 333 335 335 333 330 329 324 321 317 316 316 316 312 305 300 295 295 295
294 287 290 294 299 298 296 292 298 300 297 298 298 300 301 302 303 305 306 309 317 320 324 325 328 327 328 328 328 328 329 331 332 334 335 332 330 325 321 317 316 316 314 308 303 297 295 294 294
288 288 291 290 295 294 293 293 298 300 299 298 299 299 300 301 304 305 305 307 313 318 322 324 327 325 325 324 324 324 324 326 329 332 332 334 331 327 322 319 316 315 311 305 300 296 295 295 293
293 291 290 291 296 293 293 293 295 297 297 296 297 298 299 300 303 305 306 306 308 314 318 323 324 324 323 322 321 319 321 322 322 327 328 329 330 327 323 319 315 314 310 304 299 295 293 293 293
293 290 289 293 295 292 292 292 295 296 297 298 298 298 299 300 301 303 305 304 306 310 316 319 322 323 322 323 323 321 321 319 319 318 318 320 325 324 322 318 314 312 308 302 297 296 293 292 292
291 290 289 290 292 292 289 288 292 297 299 299 299 301 301 301 300 301 302 304 304 306 310 315 319 321 321 321 318 313 313 312 312 310 314 314 316 323 322 318 314 311 307 302 297 297 294 291 292
289 293 293 291 288 283 291 280 289 293 293 296 298 298 298 300 301 302 302 303 303 305 307 312 314 315 317 316 314 313 312 310 308 308 307 308 310 313 317 315 312 309 307 303 299 298 296 294 291
291 294 292 290 287 286 286 283 287 291 290 293 296 297 299 300 303 304 302 303 304 305 304 305 308 310 310 311 310 310 308 307 305 305 305 305 305 307 309 311 310 308 306 305 300 298 296 295 293
296 292 291 289 287 280 286 285 284 288 291 292 296 297 299 298 300 300 300 301 302 304 304 305 305 306 308 309 310 308 306 304 305 305 304 303 302 302 303 305 308 307 306 305 300 299 298 296 296
292 288 280 279 278 279 285 283 286 291 293 293 295 297 297 298 300 299 298 298 299 300 302 304 304 303 306 307 308 308 307 305 305 306 303 298 298 296 300 301 302 304 305 304 302 300 298 297 296
290 288 281 274 277 279 283 280 287 293 294 297 297 297 298 298 300 300 300 299 298 299 300 301 302 302 304 306 307 307 307 306 307 307 305 302 299 298 296 299 300 301 302 302 301 299 298 298 297
289 286 291 284 277 277 282 287 292 294 294 295 295 296 295 297 299 299 300 299 298 299 300 301 301 302 303 304 305 305 305 305 305 305 304 302 300 300 298 297 298 299 300 301 301 300 298 298 297
290 293 284 283 274 272 279 281 285 290 293 295 294 295 297 299 301 299 298 298 298 299 300 301 301 301 302 303 304 304 304 304 305 304 302 301 300 298 295 294 294 294 295 297 299 297 297 297 297
287 286 288 287 284 277 276 281 291 293 294 295 296 297 296 297 298 298 297 298 298 298 299 299 300 301 301 302 303 302 302 303 303 302 301 299 296 292 291 289 288 289 291 292 293 292 291 292 290
291 289 289 282 280 282 281 284 296 295 295 296 296 297 295 295 298 297 297 297 297 297 298 299 300 300 301 301 302 301 301 301 300 300 299 296 293 288 287 286 285 286 288 290 291 290 290 289 288
Wind_Speed
9 10 4 3 2 3 3 5 6 6 5 3 8 6 2 8 6 3 11 12 16 12 15 12 13 12 12 12 11 12 12 12 13 14 15 14 14 14 14 13 15 17 21 21 19 19 19 18 18
6 9 2 4 2 4 4 9 3 6 8 8 6 0 1 4 7 7 7 7 14 14 13 12 12 13 13 12 12 13 12 13 14 14 14 14 14 14 13 14 13 18 20 21 18 18 18 17 17
7 6 2 3 3 5 4 4 9 8 6 4 4 1 4 4 8 9 12 11 12 13 12 13 13 14 14 13 13 13 12 13 14 14 14 14 14 14 13 15 16 19 19 19 17 17 17 16 15
5 2 4 2 7 8 6 6 12 7 2 4 3 6 5 5 8 8 9 11 11 13 12 15 14 15 14 12 14 14 14 14 14 14 14 14 14 15 14 14 18 19 19 18 17 17 17 15 13
3 3 3 4 5 5 6 6 7 6 8 7 2 4 5 3 8 9 8 9 10 9 14 13 14 14 13 12 14 14 13 14 14 14 14 15 15 15 15 14 15 17 18 16 17 17 17 15 13
3 2 3 5 2 7 4 5 3 6 7 6 2 4 5 10 7 7 8 8 10 13 12 11 11 12 13 13 13 14 14 13 13 14 14 15 15 15 16 15 17 16 16 17 17 17 16 14 14
3 3 7 8 3 2 5 5 3 5 8 5 3 2 4 7 8 7 7 8 11 12 10 10 8 9 11 12 12 12 13 13 13 14 14 13 13 14 15 15 16 16 16 17 17 17 16 15 15
3 2 6 8 3 2 6 5 3 2 2 3 2 2 5 8 9 8 7 6 8 13 10 10 8 8 7 7 11 12 12 12 13 13 13 12 12 12 12 11 15 17 17 17 17 17 16 14 14
2 3 3 7 6 1 7 4 1 4 4 1 6 3 3 11 10 7 6 6 5 10 10 9 10 9 9 8 8 10 12 13 14 12 14 11 6 8 7 9 14 16 17 18 17 16 14 11 11
2 2 6 5 8 6 6 4 8 2 4 4 5 7 1 9 8 8 8 8 7 9 9 9 10 11 10 9 10 8 8 8 8 9 10 7 8 7 8 8 12 14 15 17 17 16 11 6 4
5 3 3 8 7 8 6 2 4 5 5 8 10 12 10 7 9 9 9 8 8 10 9 10 10 10 10 8 8 6 6 6 6 9 7 5 8 8 5 4 4 5 7 5 6 5 2 6 5
3 6 3 4 5 3 2 5 5 7 8 4 5 9 12 11 11 11 11 10 9 9 11 10 11 10 8 7 8 7 7 7 7 8 6 5 5 9 8 6 6 5 4 5 4 4 6 7 7
3 4 3 6 4 2 3 5 6 8 8 7 5 7 12 11 10 9 9 9 9 10 9 10 11 12 9 10 8 7 7 7 7 8 7 6 7 7 8 5 6 4 5 5 5 5 5 6 6
5 5 3 5 5 4 2 5 3 6 9 9 8 8 7 11 12 9 9 10 10 12 10 10 10 8 7 7 9 8 7 8 7 8 9 8 7 8 8 5 4 4 5 6 5 5 5 5 6
1 3 7 8 6 1 4 7 10 12 6 7 7 9 10 10 10 12 11 10 10 8 10 10 13 9 8 8 7 5 7 8 8 8 12 11 9 7 9 8 6 5 4 7 8 6 6 5 7
5 3 3 3 9 4 2 6 8 2 2 9 9 9 10 12 12 10 10 10 10 8 10 10 10 13 14 12 7 7 5 5 8 9 10 13 12 12 10 7 8 8 6 6 6 7 6 5 7
6 5 7 4 7 6 7 5 4 4 1 6 7 9 9 10 12 12 11 10 12 10 10 11 11 11 9 8 6 6 6 5 5 8 9 14 13 13 10 8 8 9 6 7 8 5 8 8 7
6 5 6 5 6 2 5 10 11 10 10 10 10 10 9 9 11 11 13 11 10 11 10 11 10 11 8 5 4 4 4 4 5 5 6 11 11 14 11 8 9 10 8 7 8 9 6 7 9
6 6 7 3 4 4 7 10 10 10 10 9 10 10 10 12 9 11 13 13 10 10 11 14 13 12 10 7 7 5 7 4 3 4 7 6 10 13 12 9 11 10 10 11 11 7 10 6 9
5 6 8 8 7 2 7 12 11 10 12 13 10 11 11 9 9 10 11 11 13 12 10 10 13 13 13 10 9 6 6 3 4 4 4 5 8 13 13 12 12 12 10 12 12 14 6 4 9
5 7 7 8 2 5 4 8 10 10 16 11 11 14 12 12 10 8 9 12 12 12 11 10 13 15 14 13 6 3 3 3 4 4 6 7 6 11 14 14 13 13 12 12 14 15 12 10 9
6 3 8 5 5 3 3 8 7 10 9 8 11 11 10 10 10 9 9 8 10 13 10 11 11 10 11 12 9 13 10 9 5 5 4 6 7 6 11 14 14 15 12 12 13 13 12 9 14
3 4 4 2 3 5 5 4 8 10 7 10 11 10 8 9 2 2 1 5 8 9 8 7 7 7 7 8 7 7 6 4 3 4 8 7 6 6 7 12 13 13 11 12 15 16 13 10 10
8 5 4 1 1 7 10 10 5 7 5 5 6 8 5 6 7 6 6 7 5 5 7 8 9 9 10 10 9 9 8 6 5 5 7 7 5 5 6 8 11 12 11 14 13 14 15 13 9
3 5 1 3 1 10 3 3 8 3 3 1 6 9 6 6 3 5 5 2 2 6 6 6 8 8 8 9 9 8 8 8 8 7 6 7 6 4 9 10 9 9 10 11 12 12 14 12 12
10 9 8 8 5 6 4 10 7 4 2 6 6 7 1 6 6 6 7 7 5 5 5 4 4 4 7 8 8 7 8 5 5 6 6 7 7 7 7 8 9 9 10 10 12 10 10 10 10
7 8 5 4 2 3 6 8 11 6 8 9 9 9 6 4 5 6 6 7 6 6 7 8 7 6 7 7 6 7 7 7 6 7 6 5 6 5 9 10 9 9 10 11 12 10 13 13 12
4 3 3 2 3 5 7 6 11 10 13 12 4 6 7 7 2 6 5 4 4 5 4 5 5 7 5 6 7 6 7 7 6 5 6 6 6 7 8 9 9 8 8 8 10 8 10 12 9
4 3 4 5 5 6 6 8 3 6 3 6 6 6 5 6 6 6 5 4 4 4 5 5 5 7 7 6 6 7 6 7 6 6 6 7 6 7 7 7 7 9 8 8 8 6 6 10 7
8 9 10 6 4 4 4 18 5 7 6 5 4 5 3 2 5 5 5 5 3 5 6 7 7 7 7 7 7 7 7 6 7 7 7 7 8 7 7 7 7 7 8 9 10 9 9 11 11
Wind_Direction
302 263 260 320 254 216 128 87 78 92 116 49 55 40 36 52 20 107 155 157 150 147 136 147 145 146 141 129 121 111 104 103 101 95 92 89 88 81 67 67 75 90 89 84 79 77 76 76 78
311 304 254 269 236 266 74 116 133 110 83 83 81 258 284 90 75 123 131 144 139 134 139 142 142 143 143 137 122 114 110 107 102 99 98 96 95 92 82 72 80 93 90 84 81 80 80 78 79
264 255 272 231 281 33 67 64 113 80 105 152 132 4 10 77 100 154 128 137 141 128 147 136 139 146 148 139 125 118 116 111 107 104 103 101 103 100 93 87 81 91 91 89 87 86 85 83 79
273 216 269 289 290 66 41 63 105 115 68 1 16 121 82 330 132 132 141 140 140 140 141 137 143 149 149 142 133 127 124 117 111 109 109 106 102 101 99 90 91 92 94 92 94 92 89 88 79
238 269 272 215 297 81 89 59 120 162 145 146 160 129 93 97 73 115 155 150 136 139 126 138 143 150 150 148 138 131 127 123 119 114 113 109 106 107 106 104 95 90 95 102 99 95 93 89 74
282 258 267 231 158 101 98 126 166 164 127 72 144 291 98 127 134 163 162 162 140 112 130 136 144 151 152 150 143 138 134 130 125 121 117 114 113 114 111 109 105 106 106 104 101 99 98 91 74
260 206 259 295 6 73 132 129 196 197 128 169 67 323 112 133 162 160 169 163 143 126 127 140 157 159 156 148 147 142 138 132 128 124 120 114 111 110 112 111 113 112 107 105 103 100 98 92 69
310 283 259 267 283 14 97 147 11 247 101 87 56 359 138 164 155 157 165 198 153 144 145 148 159 157 155 153 151 146 140 133 121 115 111 104 100 101 102 105 115 114 112 110 106 102 95 72 52
301 301 235 256 246 19 116 174 119 355 110 36 149 67 353 131 126 167 164 182 156 142 150 164 160 167 164 155 157 149 144 133 128 127 130 127 130 124 112 112 117 117 115 113 109 105 97 77 58
219 212 258 35 29 40 129 213 145 157 210 186 144 93 67 126 155 180 180 183 179 145 169 175 164 174 170 162 152 160 153 150 150 152 163 150 145 124 111 110 116 116 116 117 120 122 118 78 51
214 243 16 25 39 31 341 195 283 171 254 198 196 174 175 159 178 188 191 196 191 168 184 173 169 175 164 161 157 166 165 163 159 164 187 143 121 119 117 115 104 112 111 127 127 132 89 74 66
294 238 7 45 53 34 296 323 292 207 238 42 52 131 156 175 188 195 193 196 188 183 185 178 170 174 169 164 167 173 167 172 167 173 171 134 137 140 144 146 149 156 153 161 122 92 82 70 68
231 269 67 86 106 259 26 274 255 280 252 219 104 95 169 179 196 201 201 197 186 192 188 181 175 181 182 169 170 175 180 174 174 164 166 153 147 145 151 156 165 166 155 125 114 111 104 92 78
10 355 252 155 195 180 217 263 159 252 238 247 173 185 209 187 196 197 204 202 200 187 190 180 182 171 159 168 175 181 177 180 172 170 168 163 165 161 157 156 150 143 135 128 131 121 109 103 93
297 270 218 218 195 162 191 279 231 230 212 223 239 201 199 220 202 205 199 205 196 193 184 178 181 170 177 187 186 183 180 171 163 166 168 172 169 172 158 159 158 154 150 134 129 114 101 96 98
234 206 232 341 139 156 174 263 285 71 204 226 208 239 216 217 214 208 209 194 202 188 181 177 177 182 190 190 190 180 184 176 167 172 175 177 178 163 159 163 164 162 159 137 123 123 114 118 122
207 263 202 155 177 134 184 277 48 94 169 281 283 258 235 216 206 209 202 209 195 193 182 186 180 186 189 183 180 189 181 173 167 165 178 183 177 169 163 168 165 163 148 141 137 130 143 140 132
228 215 245 233 185 184 216 253 278 285 257 239 232 241 251 240 221 197 201 203 195 194 191 190 180 178 179 176 180 174 182 191 157 150 170 186 180 175 167 170 164 162 144 141 137 151 149 145 137
307 317 326 355 153 164 229 258 255 266 268 261 254 250 242 235 227 209 197 194 191 192 197 191 179 178 176 183 188 184 193 173 157 151 156 198 181 175 169 168 167 164 164 156 149 143 151 143 134
197 269 283 285 107 166 278 275 268 254 253 236 239 251 248 255 241 226 196 182 186 193 197 188 190 179 186 191 193 193 181 159 148 140 159 195 186 176 167 172 170 173 155 149 161 151 166 154 168
229 227 256 254 205 227 282 274 257 249 242 258 251 253 258 258 257 257 215 189 181 184 184 191 197 192 190 189 176 157 133 113 139 179 188 202 205 189 178 171 170 173 168 167 171 168 185 168 188
256 282 245 265 340 234 69 285 292 301 284 236 246 239 234 241 243 228 223 195 185 190 182 186 193 191 189 184 185 190 195 193 186 162 161 183 197 193 179 172 174 172 171 178 176 182 190 175 180
224 12 45 30 275 301 198 263 259 227 253 255 249 261 248 246 226 51 223 209 184 170 172 173 176 187 182 186 185 190 200 183 147 162 174 173 184 198 181 175 171 178 176 185 179 183 184 191 181
128 90 75 68 205 275 171 196 217 217 223 230 244 262 163 89 70 66 57 33 79 122 150 168 175 185 180 180 189 189 178 185 192 169 165 174 178 190 190 177 178 187 180 182 184 186 188 193 197
162 140 250 314 149 238 88 286 231 285 230 225 278 280 153 162 143 139 150 164 177 148 160 169 179 190 182 180 181 188 180 190 206 184 175 159 177 189 199 184 180 188 181 183 176 187 196 193 178
198 175 169 201 192 270 349 240 260 220 10 320 291 269 205 179 186 179 183 168 181 174 170 171 177 196 184 179 187 190 188 199 207 197 171 190 190 194 177 190 189 189 183 181 179 183 190 188 195
191 216 230 330 86 13 227 272 286 226 216 256 271 291 293 296 180 204 177 152 161 174 186 182 188 208 201 192 183 193 189 205 214 205 179 169 173 178 177 186 188 193 192 189 186 190 188 189 189
173 195 102 246 193 233 264 268 247 300 288 251 317 316 6 3 344 104 112 143 150 167 184 173 177 196 220 196 187 191 201 209 209 192 194 173 166 163 163 182 185 185 185 190 191 191 192 189 194
135 228 217 167 176 173 262 258 170 136 109 60 37 11 1 358 329 150 136 143 159 148 160 180 183 188 201 211 194 188 207 207 204 197 186 173 153 147 161 166 172 178 177 181 183 175 173 173 156
217 215 192 163 238 219 214 263 139 116 99 63 16 69 11 358 349 107 132 149 173 189 191 193 195 197 199 203 188 205 207 200 198 196 183 165 160 162 170 165 169 175 177 182 185 181 177 175 172